This is the latest recevied weather packets stored in our database for station/object DL1BWU. If no packets are shown the sender has not sent any weather packets the latest 10 day(s).
| Time | Temp. | Humidity | Pressure | Rain* | Wind** | Luminosity | Snow |
|---|---|---|---|---|---|---|---|
| 1777497925 | 6.11° C | 52% | 1031.9 hPa | 0 mm | - | - | - |
| 1777497325 | 6.11° C | 51% | 1031.9 hPa | 0 mm | - | - | - |
| 1777496725 | 6.11° C | 51% | 1031.8 hPa | 0 mm | - | - | - |
| 1777496125 | 6.11° C | 51% | 1031.8 hPa | 0 mm | - | - | - |
| 1777495525 | 6.11° C | 51% | 1031.7 hPa | 0 mm | - | - | - |
| 1777494925 | 6.67° C | 50% | 1031.7 hPa | 0 mm | - | - | - |
| 1777494325 | 6.67° C | 49% | 1031.6 hPa | 0 mm | - | - | - |
| 1777493725 | 6.67° C | 48% | 1031.6 hPa | 0 mm | - | - | - |
| 1777493125 | 7.22° C | 47% | 1031.4 hPa | 0 mm | - | - | - |
| 1777492525 | 7.78° C | 47% | 1031.4 hPa | 0 mm | - | - | - |
| 1777491925 | 7.78° C | 46% | 1031.1 hPa | 0 mm | - | - | - |
| 1777491325 | 8.33° C | 46% | 1031.1 hPa | 0 mm | - | - | - |
| 1777490725 | 8.33° C | 45% | 1030.9 hPa | 0 mm | - | - | - |
| 1777490125 | 8.89° C | 44% | 1030.9 hPa | 0 mm | - | - | - |
| 1777489525 | 8.89° C | 43% | 1030.6 hPa | 0 mm | - | - | - |
| 1777488925 | 9.44° C | 43% | 1030.5 hPa | 0 mm | - | - | - |
| 1777488325 | 10° C | 42% | 1030.4 hPa | 0 mm | - | - | - |
| 1777487725 | 10° C | 42% | 1030.2 hPa | 0 mm | - | - | - |
| 1777487125 | 10.56° C | 41% | 1030.4 hPa | 0 mm | - | - | - |
| 1777486525 | 11.11° C | 40% | 1030.4 hPa | 0 mm | - | - | - |
| 1777485925 | 11.67° C | 39% | 1030.3 hPa | 0 mm | - | - | - |
| 1777485325 | 11.67° C | 38% | 1030.2 hPa | 0 mm | - | - | - |
| 1777484725 | 12.22° C | 37% | 1030.1 hPa | 0 mm | - | - | - |
| 1777484125 | 12.78° C | 37% | 1030.1 hPa | 0 mm | - | - | - |
| 1777483525 | 12.78° C | 36% | 1030.1 hPa | 0 mm | - | - | - |
* Rain latest hour (hover to see other rain measurements)
** Current wind speed in m/s (hover to see current wind gust speed)